QPF
0.04 0.03 0.01 0.00 0.00 0.00 0.00 0.00 0.00 0.00 0.00 0.00 0.00 0.00 0.00 0.00 0.00 0.00 0.00 0.00 0.00 0.00 0.00 0.00 0.00 0.00 0.00 0.00 0.00 0.00 0.00 0.00 0.00 0.00 0.00 0.00 0.00 0.00 0.00 0.00 0.00 0.00 0.00 0.00
0.04 0.01 0.00 0.00 0.01 0.01 0.00 0.00 0.00 0.00 0.00 0.00 0.00 0.00 0.00 0.00 0.00 0.00 0.00 0.00 0.00 0.00 0.00 0.00 0.00 0.00 0.00 0.00 0.00 0.00 0.00 0.00 0.00 0.00 0.00 0.00 0.00 0.00 0.00 0.00 0.00 0.00 0.00 0.00
0.01 0.00 0.00 0.01 0.01 0.02 0.02 0.01 0.00 0.00 0.00 0.00 0.00 0.00 0.00 0.00 0.00 0.00 0.00 0.00 0.00 0.00 0.00 0.00 0.00 0.00 0.00 0.00 0.00 0.00 0.00 0.00 0.00 0.00 0.00 0.00 0.00 0.00 0.00 0.00 0.00 0.00 0.00 0.00
0.03 0.00 0.00 0.02 0.01 0.01 0.01 0.00 0.01 0.01 0.01 0.00 0.00 0.00 0.00 0.00 0.00 0.00 0.00 0.00 0.00 0.00 0.00 0.00 0.00 0.00 0.00 0.00 0.00 0.00 0.00 0.00 0.00 0.00 0.00 0.00 0.00 0.00 0.00 0.00 0.00 0.00 0.00 0.00
0.01 0.00 0.00 0.01 0.00 0.01 0.00 0.00 0.01 0.01 0.02 0.02 0.00 0.01 0.00 0.00 0.00 0.00 0.00 0.00 0.00 0.00 0.00 0.00 0.00 0.00 0.00 0.00 0.00 0.00 0.00 0.00 0.00 0.00 0.00 0.00 0.00 0.00 0.00 0.00 0.00 0.00 0.00 0.00
0.00 0.00 0.01 0.00 0.00 0.01 0.02 0.02 0.02 0.02 0.01 0.02 0.00 0.00 0.00 0.00 0.00 0.00 0.00 0.00 0.00 0.00 0.00 0.00 0.00 0.00 0.00 0.00 0.00 0.00 0.00 0.00 0.00 0.00 0.00 0.00 0.00 0.00 0.00 0.00 0.00 0.00 0.00 0.00
0.00 0.00 0.00 0.00 0.00 0.00 0.01 0.02 0.02 0.01 0.01 0.00 0.00 0.00 0.00 0.00 0.00 0.00 0.00 0.00 0.00 0.00 0.00 0.00 0.00 0.00 0.00 0.00 0.00 0.00 0.00 0.00 0.00 0.00 0.00 0.00 0.00 0.00 0.00 0.00 0.00 0.00 0.00 0.00
0.00 0.00 0.00 0.00 0.00 0.00 0.00 0.02 0.02 0.01 0.00 0.00 0.00 0.01 0.00 0.00 0.00 0.00 0.00 0.00 0.00 0.00 0.00 0.00 0.00 0.00 0.00 0.00 0.00 0.00 0.00 0.00 0.00 0.00 0.00 0.00 0.00 0.00 0.00 0.00 0.00 0.00 0.00 0.00
0.00 0.00 0.00 0.00 0.00 0.01 0.02 0.05 0.02 0.04 0.00 0.01 0.00 0.01 0.00 0.00 0.00 0.00 0.00 0.00 0.00 0.00 0.00 0.00 0.00 0.00 0.00 0.00 0.00 0.00 0.00 0.00 0.00 0.00 0.00 0.00 0.00 0.00 0.00 0.00 0.00 0.00 0.00 0.00
0.00 0.00 0.00 0.00 0.00 0.00 0.01 0.02 0.06 0.07 0.04 0.01 0.00 0.00 0.00 0.00 0.00 0.00 0.00 0.00 0.00 0.00 0.00 0.00 0.00 0.00 0.00 0.00 0.00 0.00 0.00 0.00 0.00 0.00 0.00 0.00 0.00 0.00 0.00 0.00 0.00 0.00 0.00 0.00
0.00 0.00 0.00 0.00 0.00 0.00 0.01 0.03 0.03 0.04 0.03 0.01 0.00 0.00 0.00 0.00 0.00 0.00 0.00 0.00 0.00 0.00 0.00 0.00 0.00 0.00 0.00 0.00 0.00 0.00 0.00 0.00 0.00 0.00 0.00 0.00 0.00 0.00 0.00 0.00 0.00 0.00 0.00 0.00
0.00 0.00 0.00 0.00 0.00 0.00 0.00 0.00 0.00 0.01 0.00 0.00 0.00 0.00 0.00 0.00 0.00 0.00 0.00 0.00 0.00 0.00 0.00 0.00 0.00 0.00 0.00 0.00 0.00 0.00 0.00 0.00 0.00 0.00 0.00 0.00 0.00 0.00 0.00 0.00 0.00 0.00 0.00 0.00
0.00 0.00 0.00 0.00 0.00 0.00 0.00 0.00 0.00 0.01 0.01 0.00 0.00 0.00 0.00 0.00 0.00 0.00 0.00 0.00 0.00 0.00 0.00 0.00 0.00 0.00 0.00 0.00 0.00 0.00 0.00 0.00 0.00 0.00 0.00 0.00 0.00 0.00 0.00 0.00 0.00 0.00 0.00 0.00
0.00 0.00 0.00 0.00 0.00 0.00 0.00 0.00 0.00 0.04 0.03 0.00 0.01 0.00 0.00 0.00 0.00 0.00 0.00 0.00 0.00 0.00 0.00 0.00 0.00 0.00 0.00 0.00 0.00 0.00 0.00 0.00 0.00 0.00 0.00 0.00 0.00 0.00 0.00 0.00 0.00 0.00 0.00 0.00
0.00 0.00 0.00 0.00 0.00 0.00 0.00 0.00 0.00 0.01 0.00 0.01 0.00 0.00 0.00 0.00 0.00 0.00 0.00 0.00 0.00 0.00 0.00 0.00 0.00 0.00 0.00 0.00 0.00 0.00 0.00 0.00 0.00 0.00 0.00 0.00 0.00 0.00 0.00 0.00 0.00 0.00 0.00 0.00
0.00 0.00 0.00 0.00 0.00 0.00 0.00 0.00 0.00 0.00 0.00 0.00 0.00 0.00 0.00 0.00 0.00 0.00 0.00 0.00 0.00 0.00 0.00 0.00 0.00 0.00 0.00 0.00 0.00 0.00 0.00 0.00 0.00 0.00 0.00 0.00 0.00 0.00 0.00 0.00 0.00 0.00 0.00 0.00
0.00 0.00 0.00 0.00 0.00 0.00 0.00 0.00 0.00 0.00 0.00 0.00 0.00 0.00 0.00 0.00 0.00 0.00 0.00 0.00 0.00 0.00 0.00 0.00 0.00 0.00 0.00 0.00 0.00 0.00 0.00 0.00 0.00 0.00 0.00 0.00 0.00 0.00 0.00 0.00 0.00 0.00 0.00 0.00
0.00 0.00 0.00 0.00 0.00 0.00 0.00 0.00 0.00 0.00 0.00 0.00 0.00 0.00 0.00 0.00 0.00 0.00 0.00 0.00 0.00 0.00 0.00 0.00 0.00 0.00 0.00 0.00 0.00 0.00 0.00 0.00 0.00 0.00 0.00 0.00 0.00 0.00 0.00 0.00 0.00 0.00 0.00 0.00
0.00 0.01 0.00 0.00 0.00 0.00 0.00 0.00 0.00 0.00 0.00 0.00 0.00 0.00 0.00 0.00 0.00 0.00 0.00 0.00 0.00 0.00 0.00 0.00 0.00 0.00 0.00 0.00 0.00 0.00 0.00 0.00 0.00 0.00 0.00 0.00 0.00 0.00 0.00 0.00 0.00 0.00 0.00 0.00
0.00 0.00 0.00 0.00 0.00 0.00 0.00 0.00 0.00 0.00 0.00 0.00 0.00 0.00 0.00 0.00 0.00 0.00 0.00 0.00 0.00 0.00 0.00 0.00 0.00 0.00 0.00 0.00 0.00 0.00 0.00 0.00 0.00 0.00 0.00 0.00 0.00 0.00 0.00 0.00 0.00 0.00 0.00 0.00
0.00 0.00 0.00 0.00 0.00 0.00 0.00 0.00 0.00 0.00 0.00 0.00 0.00 0.00 0.00 0.00 0.00 0.00 0.00 0.00 0.00 0.00 0.00 0.00 0.00 0.00 0.00 0.00 0.00 0.00 0.00 0.00 0.00 0.00 0.00 0.00 0.00 0.00 0.00 0.00 0.00 0.00 0.00 0.00
0.00 0.00 0.00 0.00 0.00 0.00 0.00 0.00 0.00 0.00 0.00 0.00 0.00 0.00 0.00 0.00 0.00 0.00 0.00 0.00 0.00 0.00 0.00 0.00 0.00 0.00 0.00 0.00 0.00 0.00 0.00 0.00 0.00 0.00 0.00 0.00 0.00 0.00 0.00 0.00 0.00 0.00 0.00 0.00
0.00 0.00 0.00 0.00 0.00 0.00 0.00 0.00 0.00 0.00 0.00 0.00 0.00 0.00 0.00 0.00 0.00 0.00 0.00 0.00 0.00 0.00 0.00 0.00 0.00 0.00 0.00 0.00 0.00 0.00 0.00 0.00 0.00 0.00 0.00 0.00 0.00 0.00 0.00 0.00 0.00 0.00 0.00 0.00
0.00 0.00 0.00 0.00 0.00 0.00 0.00 0.00 0.00 0.00 0.00 0.00 0.00 0.00 0.00 0.00 0.00 0.00 0.00 0.00 0.00 0.00 0.00 0.00 0.00 0.00 0.00 0.00 0.00 0.00 0.00 0.00 0.00 0.00 0.00 0.00 0.00 0.00 0.00 0.00 0.00 0.00 0.00 0.00
0.00 0.00 0.00 0.00 0.00 0.00 0.00 0.00 0.00 0.00 0.00 0.00 0.00 0.00 0.00 0.00 0.00 0.00 0.00 0.00 0.00 0.00 0.00 0.00 0.00 0.00 0.00 0.00 0.00 0.00 0.00 0.00 0.00 0.00 0.00 0.00 0.00 0.00 0.00 0.00 0.00 0.00 0.00 0.00
0.00 0.00 0.00 0.00 0.00 0.00 0.00 0.00 0.00 0.00 0.00 0.00 0.00 0.00 0.00 0.00 0.00 0.00 0.00 0.00 0.00 0.00 0.00 0.00 0.00 0.00 0.00 0.00 0.00 0.00 0.00 0.00 0.00 0.00 0.00 0.00 0.00 0.00 0.00 0.00 0.00 0.00 0.00 0.00
MSLP
1019.82 1019.98 1019.12 1019.23 1019.72 1020.21 1020.17 1020.09 1019.73 1019.26 1019.34 1019.26 1018.63 1017.54 1016.99 1016.39 1016.05 1015.55 1015.11 1014.48 1014.12 1013.65 1012.84 1012.16 1012.01 1012.10 1012.40 1012.79 1013.64 1014.03 1014.52 1015.23 1015.68 1016.10 1016.46 1017.05 1017.06 1017.54 1017.91 1018.05 1018.36 1018.77 1019.18 1019.59
1019.83 1019.02 1019.24 1019.45 1019.68 1020.23 1020.33 1020.25 1019.54 1019.41 1019.50 1019.63 1019.01 1017.97 1016.93 1016.44 1015.48 1014.85 1014.25 1013.60 1013.40 1012.66 1012.04 1011.47 1011.16 1011.36 1011.71 1011.73 1012.22 1012.99 1013.28 1013.87 1014.66 1015.20 1015.41 1015.79 1016.38 1016.59 1016.90 1017.36 1017.65 1017.87 1018.26 1018.63
1019.04 1018.60 1019.26 1019.29 1019.59 1019.96 1019.95 1019.92 1019.67 1019.95 1019.88 1019.62 1019.58 1018.39 1016.67 1015.37 1014.46 1013.86 1012.95 1012.89 1012.15 1011.83 1011.23 1010.78 1010.47 1010.14 1010.37 1010.91 1011.20 1011.78 1011.91 1012.07 1012.78 1013.70 1014.86 1015.45 1016.06 1016.48 1016.50 1016.48 1016.79 1016.80 1017.17 1017.55
1019.11 1018.40 1018.95 1019.05 1019.19 1019.54 1019.71 1019.52 1019.81 1020.00 1020.50 1019.92 1019.76 1018.09 1016.17 1015.57 1014.32 1013.23 1012.81 1012.26 1011.46 1010.96 1010.53 1010.09 1009.58 1009.37 1009.50 1009.56 1009.91 1010.04 1010.72 1011.10 1011.67 1012.63 1013.68 1014.00 1014.23 1014.62 1014.40 1014.79 1015.39 1015.84 1016.17 1016.59
1017.67 1017.94 1018.24 1018.64 1018.15 1019.11 1019.13 1019.36 1019.70 1019.85 1019.93 1019.97 1019.55 1019.03 1015.39 1014.96 1013.76 1012.81 1012.42 1011.55 1010.55 1009.81 1009.38 1008.93 1008.62 1008.25 1008.10 1008.65 1009.03 1009.27 1009.64 1010.16 1010.61 1011.48 1012.15 1013.06 1013.48 1013.50 1013.99 1014.35 1014.50 1014.80 1015.16 1015.43
1017.51 1017.42 1017.66 1017.51 1017.91 1018.59 1018.97 1019.27 1019.50 1019.72 1020.07 1019.34 1018.49 1018.61 1015.93 1014.69 1013.12 1012.12 1011.41 1010.58 1009.70 1009.40 1008.83 1008.08 1007.42 1007.48 1007.52 1007.54 1008.14 1008.57 1008.88 1009.11 1009.63 1010.36 1011.16 1011.62 1012.02 1012.57 1013.11 1013.17 1013.36 1013.55 1013.85 1014.24
1017.76 1017.38 1017.02 1017.01 1017.65 1018.25 1018.92 1019.61 1019.97 1019.99 1019.90 1018.41 1017.19 1017.76 1015.43 1013.49 1011.79 1011.32 1010.28 1009.93 1009.30 1008.91 1008.42 1007.76 1007.27 1007.28 1006.91 1007.17 1007.45 1007.81 1008.15 1008.51 1008.99 1009.23 1009.83 1010.25 1010.67 1011.31 1011.57 1011.87 1012.13 1012.54 1012.87 1013.05
1017.65 1017.30 1016.72 1016.36 1016.65 1017.24 1018.24 1018.99 1019.17 1019.17 1019.05 1018.49 1017.54 1016.43 1013.76 1012.35 1011.01 1010.51 1010.08 1009.29 1008.97 1008.56 1007.82 1007.44 1007.00 1006.86 1006.50 1006.72 1006.89 1007.07 1007.29 1007.45 1007.73 1007.93 1008.15 1008.80 1009.31 1009.72 1009.89 1010.31 1010.56 1010.88 1011.29 1011.45
1016.60 1016.47 1015.76 1015.48 1015.97 1016.84 1017.46 1018.25 1018.23 1019.12 1018.94 1018.96 1017.22 1015.54 1013.29 1011.64 1010.67 1010.05 1009.76 1009.38 1008.92 1008.20 1007.65 1007.17 1006.89 1006.35 1006.11 1006.45 1006.75 1006.93 1006.88 1006.92 1007.09 1007.19 1007.25 1007.47 1008.05 1008.46 1008.54 1008.72 1009.20 1009.66 1010.02 1010.36
1015.62 1015.96 1015.28 1015.16 1015.65 1015.85 1016.12 1017.09 1018.40 1019.09 1018.94 1018.15 1016.45 1014.85 1012.58 1010.85 1010.45 1010.09 1009.91 1009.90 1009.41 1008.41 1007.76 1007.23 1007.03 1006.48 1006.49 1006.66 1006.77 1006.94 1006.99 1006.85 1006.72 1006.71 1006.79 1006.69 1006.78 1007.14 1007.51 1007.81 1007.99 1008.42 1008.66 1009.10
1015.34 1015.58 1015.55 1015.21 1015.13 1015.45 1016.53 1016.87 1017.61 1017.90 1018.32 1017.59 1015.89 1013.92 1011.23 1010.85 1010.77 1010.42 1010.43 1010.45 1009.74 1008.90 1008.28 1007.59 1007.08 1006.80 1006.92 1007.06 1006.81 1006.68 1006.69 1006.66 1006.43 1006.20 1006.20 1006.20 1006.16 1006.19 1006.56 1006.73 1006.91 1007.11 1007.62 1008.10
1015.02 1015.60 1016.25 1015.69 1015.04 1014.99 1015.35 1015.65 1016.70 1017.60 1017.50 1017.27 1016.13 1013.52 1011.21 1010.50 1010.62 1010.60 1010.65 1010.70 1010.19 1009.96 1009.40 1008.92 1008.17 1007.51 1007.33 1007.52 1007.42 1006.83 1006.40 1006.21 1005.83 1005.72 1005.65 1005.53 1005.40 1005.31 1005.38 1005.53 1005.83 1006.24 1006.54 1006.90
1014.25 1015.15 1016.38 1016.46 1015.92 1015.06 1015.14 1015.34 1015.77 1016.47 1016.89 1016.40 1015.97 1013.16 1010.49 1010.99 1011.14 1011.20 1011.44 1011.01 1010.52 1010.10 1009.63 1009.39 1008.68 1008.02 1007.66 1007.54 1007.07 1006.51 1006.17 1005.86 1005.61 1005.49 1005.32 1004.99 1004.69 1004.63 1004.60 1004.70 1004.76 1005.03 1005.35 1005.75
1013.90 1014.83 1015.14 1015.24 1015.56 1014.84 1015.27 1015.24 1015.46 1016.00 1016.32 1014.71 1015.10 1012.88 1010.44 1011.61 1012.03 1011.95 1011.49 1010.78 1010.28 1009.89 1009.81 1009.35 1008.75 1008.40 1007.74 1007.44 1007.02 1006.60 1006.06 1005.56 1005.31 1005.22 1005.10 1004.94 1004.64 1004.11 1003.63 1003.65 1003.89 1004.07 1004.17 1004.41
1013.81 1014.81 1015.70 1016.13 1015.69 1015.52 1015.35 1015.15 1015.23 1015.45 1014.83 1015.50 1013.50 1013.78 1010.70 1012.14 1012.37 1012.09 1011.98 1011.60 1011.14 1011.18 1011.00 1011.26 1010.65 1010.05 1009.30 1008.56 1007.72 1006.91 1006.01 1005.30 1004.79 1004.63 1004.37 1004.14 1003.73 1003.62 1003.29 1003.19 1003.02 1003.10 1003.26 1003.22
1014.22 1015.44 1016.31 1016.98 1016.52 1016.09 1015.59 1014.84 1015.08 1015.06 1015.18 1015.05 1014.66 1013.57 1012.11 1012.33 1012.48 1012.63 1012.79 1013.20 1013.52 1013.22 1012.99 1012.37 1011.76 1011.26 1010.87 1010.45 1009.56 1008.15 1006.79 1005.79 1004.76 1004.27 1003.94 1003.50 1003.40 1003.13 1002.88 1002.61 1002.47 1002.49 1002.50 1002.59
1014.19 1015.79 1017.42 1018.29 1017.50 1017.09 1016.25 1014.61 1014.43 1014.37 1014.54 1014.73 1014.91 1013.22 1012.62 1013.87 1014.16 1014.57 1014.75 1014.91 1014.84 1014.46 1014.02 1013.52 1013.27 1012.83 1012.19 1011.50 1010.45 1009.09 1008.36 1006.88 1005.14 1004.50 1003.85 1003.31 1002.80 1002.61 1002.27 1001.99 1001.90 1001.74 1001.82 1001.88
1014.57 1016.37 1017.86 1019.13 1018.94 1018.04 1015.08 1013.93 1013.69 1014.00 1014.34 1014.77 1014.95 1015.23 1016.35 1016.76 1015.97 1016.41 1016.44 1016.30 1016.10 1015.86 1015.25 1014.69 1013.94 1012.94 1012.76 1012.02 1010.84 1009.97 1008.99 1007.72 1006.11 1004.84 1004.05 1002.93 1002.24 1002.08 1001.69 1001.54 1001.43 1001.32 1001.21 1001.00
1014.67 1016.67 1018.66 1019.88 1020.18 1018.03 1015.86 1014.33 1013.80 1014.13 1015.65 1017.19 1017.40 1017.64 1018.13 1018.08 1016.53 1016.97 1016.93 1017.67 1017.64 1017.15 1016.56 1015.95 1015.33 1014.85 1013.44 1012.43 1011.69 1010.68 1009.43 1008.40 1007.10 1005.70 1004.40 1003.41 1002.58 1001.74 1001.29 1001.31 1000.98 1000.66 1000.70 1000.50
1015.87 1016.72 1018.72 1020.83 1021.03 1019.04 1016.26 1014.53 1014.27 1014.37 1017.16 1019.05 1019.59 1019.88 1019.80 1019.43 1019.08 1018.64 1017.95 1017.82 1018.01 1018.23 1017.73 1016.59 1015.92 1015.27 1014.62 1013.55 1012.85 1011.83 1010.68 1009.41 1007.97 1006.78 1005.59 1004.32 1003.16 1002.03 1001.49 1000.96 1000.38 1000.08 1000.03 999.56
1017.61 1018.50 1019.77 1021.30 1021.20 1019.22 1016.83 1015.86 1015.35 1017.52 1019.80 1020.95 1021.59 1021.88 1021.82 1021.90 1022.09 1021.36 1020.55 1019.27 1019.37 1018.76 1017.87 1017.31 1016.54 1015.78 1015.04 1013.86 1013.01 1011.80 1010.89 1010.06 1008.99 1007.59 1006.18 1004.57 1003.02 1001.79 1000.82 1000.15 999.82 999.66 999.54 999.35
1016.84 1018.50 1020.12 1021.05 1021.49 1020.01 1018.06 1017.70 1018.93 1020.90 1021.73 1022.49 1022.98 1023.21 1023.12 1022.85 1022.51 1022.43 1021.87 1020.99 1019.71 1018.68 1018.06 1017.70 1016.49 1015.66 1015.20 1014.78 1013.70 1012.31 1011.18 1010.16 1009.07 1007.80 1006.24 1004.44 1002.88 1001.50 1000.48 999.92 999.53 999.27 999.10 999.19
1016.12 1015.91 1017.49 1019.10 1019.70 1019.72 1020.04 1020.73 1022.15 1022.81 1023.17 1023.87 1024.23 1024.29 1024.21 1023.64 1022.91 1022.63 1022.26 1021.81 1021.07 1020.20 1019.07 1018.57 1017.82 1016.49 1015.99 1015.33 1014.60 1012.91 1011.72 1010.54 1009.01 1007.64 1006.03 1004.29 1002.65 1001.46 1000.35 999.66 999.20 999.18 998.87 998.59
1015.92 1015.93 1016.85 1018.60 1020.16 1021.04 1021.95 1022.92 1023.61 1024.08 1024.61 1025.04 1025.30 1025.19 1024.86 1024.31 1023.76 1022.92 1022.41 1022.17 1021.80 1021.21 1020.10 1019.11 1018.28 1017.35 1016.24 1015.62 1014.68 1013.63 1012.23 1011.03 1009.77 1007.85 1005.80 1003.94 1002.43 1001.22 1000.22 999.43 998.94 998.70 998.37 998.00
1017.29 1017.19 1018.30 1020.45 1021.60 1022.61 1023.53 1024.15 1024.86 1025.34 1025.67 1025.77 1025.82 1025.73 1025.38 1024.91 1024.25 1023.82 1023.21 1022.73 1022.16 1021.62 1020.84 1020.10 1019.20 1018.20 1017.15 1016.10 1014.91 1013.65 1012.32 1011.27 1009.83 1008.07 1006.02 1003.69 1002.11 1001.09 1000.04 999.30 998.83 998.40 997.93 997.75
1019.35 1019.58 1020.15 1021.41 1022.42 1023.13 1023.82 1024.84 1025.81 1025.98 1026.24 1026.37 1026.43 1026.20 1026.08 1025.74 1025.12 1024.58 1023.95 1023.45 1022.75 1021.96 1021.17 1020.40 1019.70 1018.76 1017.68 1016.63 1015.45 1013.94 1012.49 1011.49 1009.98 1008.07 1006.03 1003.84 1002.06 1000.76 999.84 999.03 998.16 997.89 997.50 997.37
Thickness
5557 5556 5576 5582 5582 5582 5582 5585 5590 5607 5609 5601 5606 5623 5635 5650 5655 5660 5670 5680 5688 5692 5705 5713 5716 5721 5718 5715 5708 5705 5703 5700 5696 5695 5693 5689 5688 5685 5683 5682 5681 5679 5676 5674
5541 5554 5570 5568 5571 5565 5569 5569 5583 5592 5594 5582 5590 5604 5628 5635 5651 5664 5671 5679 5681 5693 5699 5708 5712 5712 5713 5714 5708 5703 5702 5699 5694 5692 5692 5691 5687 5686 5685 5681 5681 5680 5677 5675
5538 5559 5555 5556 5557 5556 5560 5564 5573 5570 5577 5578 5571 5580 5615 5636 5651 5663 5678 5678 5687 5689 5695 5699 5706 5708 5710 5710 5707 5701 5701 5702 5699 5694 5685 5683 5681 5681 5681 5681 5678 5678 5675 5673
5524 5552 5544 5544 5547 5552 5547 5564 5560 5558 5552 5557 5565 5563 5606 5620 5636 5656 5665 5670 5680 5687 5692 5696 5701 5703 5701 5708 5707 5705 5702 5699 5698 5692 5684 5684 5684 5684 5691 5687 5682 5679 5675 5673
5534 5536 5536 5532 5555 5546 5547 5554 5551 5549 5550 5549 5553 5547 5602 5613 5623 5647 5653 5663 5673 5684 5690 5694 5699 5703 5706 5702 5703 5702 5698 5697 5694 5688 5685 5680 5679 5685 5682 5682 5681 5679 5677 5674
5529 5533 5527 5536 5544 5538 5543 5544 5543 5540 5536 5534 5561 5545 5577 5607 5631 5646 5656 5665 5676 5676 5681 5694 5702 5700 5702 5701 5697 5695 5694 5693 5691 5686 5681 5679 5680 5679 5675 5679 5680 5679 5678 5676
5516 5518 5530 5538 5529 5527 5525 5525 5521 5521 5523 5539 5567 5539 5567 5615 5642 5640 5655 5660 5667 5668 5672 5680 5688 5687 5692 5693 5689 5690 5690 5686 5686 5687 5683 5680 5680 5677 5677 5678 5680 5677 5676 5677
5500 5487 5521 5533 5531 5529 5520 5523 5521 5516 5525 5529 5536 5531 5575 5614 5639 5643 5647 5653 5657 5663 5668 5670 5678 5680 5684 5685 5685 5685 5687 5688 5686 5686 5687 5683 5680 5678 5680 5679 5681 5681 5679 5680
5496 5504 5526 5530 5531 5524 5522 5513 5534 5514 5515 5493 5525 5545 5581 5611 5626 5631 5631 5634 5639 5651 5657 5662 5667 5675 5678 5676 5675 5674 5679 5681 5680 5682 5683 5681 5678 5675 5678 5679 5679 5678 5678 5678
5509 5502 5520 5522 5520 5521 5524 5527 5507 5502 5488 5509 5519 5532 5560 5604 5615 5617 5615 5615 5621 5634 5641 5650 5653 5662 5664 5663 5663 5663 5664 5670 5674 5675 5675 5677 5676 5674 5674 5673 5675 5675 5676 5675
5506 5504 5507 5511 5513 5515 5506 5508 5507 5508 5496 5510 5519 5526 5582 5590 5592 5596 5596 5597 5606 5617 5626 5634 5641 5645 5648 5647 5650 5652 5652 5655 5661 5668 5670 5671 5671 5675 5672 5672 5672 5674 5672 5670
5498 5492 5475 5496 5512 5516 5516 5515 5509 5493 5490 5483 5504 5527 5579 5580 5581 5583 5579 5582 5588 5594 5605 5611 5619 5628 5633 5632 5632 5638 5642 5645 5651 5658 5661 5665 5669 5672 5673 5674 5671 5670 5669 5668
5499 5479 5433 5459 5489 5507 5504 5508 5509 5504 5499 5500 5492 5522 5584 5567 5563 5566 5563 5568 5573 5582 5589 5593 5603 5610 5613 5616 5621 5628 5633 5636 5640 5644 5651 5658 5663 5665 5667 5667 5669 5668 5666 5666
5499 5481 5485 5491 5484 5502 5494 5499 5500 5495 5486 5509 5500 5524 5558 5553 5543 5546 5553 5566 5575 5577 5574 5578 5585 5588 5595 5602 5611 5616 5620 5626 5630 5633 5640 5644 5648 5655 5662 5663 5663 5665 5664 5662
5490 5459 5477 5485 5490 5489 5495 5496 5488 5488 5503 5483 5519 5507 5549 5541 5533 5538 5541 5544 5547 5547 5548 5546 5555 5564 5574 5585 5595 5602 5612 5619 5624 5628 5634 5638 5643 5646 5653 5656 5658 5659 5660 5662
5477 5458 5465 5442 5477 5481 5479 5487 5479 5480 5481 5480 5486 5493 5533 5528 5522 5517 5516 5511 5503 5510 5516 5521 5529 5537 5544 5549 5560 5576 5592 5604 5612 5618 5624 5629 5630 5635 5640 5647 5651 5652 5653 5654
5471 5448 5439 5408 5459 5459 5436 5471 5482 5489 5484 5485 5477 5513 5527 5493 5492 5486 5478 5478 5481 5486 5493 5498 5500 5507 5514 5524 5536 5552 5562 5580 5601 5604 5605 5609 5617 5625 5632 5636 5640 5644 5647 5647
5448 5444 5433 5399 5409 5421 5473 5484 5486 5478 5486 5487 5491 5487 5452 5445 5458 5456 5452 5450 5453 5457 5466 5472 5480 5491 5493 5502 5516 5529 5539 5553 5571 5586 5591 5599 5607 5613 5618 5621 5625 5631 5633 5639
5458 5437 5425 5429 5375 5423 5453 5475 5481 5474 5470 5431 5439 5437 5429 5426 5449 5443 5437 5429 5429 5434 5441 5447 5454 5457 5471 5483 5492 5503 5516 5529 5543 5560 5572 5582 5589 5600 5604 5607 5613 5619 5619 5624
5447 5446 5424 5332 5356 5374 5445 5472 5474 5479 5447 5407 5408 5405 5404 5411 5427 5430 5416 5416 5414 5410 5414 5427 5434 5440 5446 5457 5463 5475 5488 5501 5517 5531 5544 5558 5569 5578 5586 5595 5603 5607 5609 5617
5385 5374 5402 5328 5338 5386 5435 5440 5451 5420 5438 5380 5377 5378 5379 5378 5376 5379 5385 5396 5392 5395 5400 5404 5412 5420 5428 5438 5446 5459 5469 5478 5490 5503 5519 5536 5551 5564 5575 5583 5589 5594 5596 5598
5407 5380 5352 5331 5336 5385 5405 5423 5443 5383 5366 5363 5358 5358 5358 5360 5360 5356 5358 5366 5379 5385 5387 5388 5396 5405 5410 5413 5422 5438 5450 5460 5471 5484 5499 5517 5533 5546 5557 5563 5573 5576 5580 5582
5410 5421 5400 5403 5400 5380 5371 5364 5350 5349 5349 5342 5339 5340 5338 5341 5345 5343 5341 5343 5348 5356 5365 5365 5370 5382 5386 5392 5399 5415 5426 5439 5454 5467 5483 5499 5516 5528 5537 5547 5555 5559 5564 5571
5418 5411 5414 5404 5375 5357 5346 5338 5334 5332 5327 5324 5320 5320 5321 5323 5325 5330 5330 5325 5324 5327 5336 5343 5348 5355 5365 5370 5379 5388 5401 5414 5427 5447 5466 5484 5498 5510 5520 5530 5538 5544 5550 5556
5383 5390 5379 5363 5349 5335 5328 5322 5317 5312 5308 5307 5304 5302 5303 5304 5308 5307 5307 5303 5303 5304 5309 5314 5320 5329 5337 5346 5357 5367 5380 5390 5405 5423 5444 5468 5482 5492 5504 5512 5518 5525 5533 5538
5333 5355 5378 5371 5326 5324 5323 5308 5295 5294 5289 5287 5284 5283 5281 5280 5282 5281 5281 5279 5279 5281 5285 5290 5294 5303 5313 5321 5330 5344 5358 5368 5382 5402 5423 5446 5463 5476 5486 5494 5504 5508 5515 5518